Westminster, MD

5:49 AM EDT on August 23, 2017 (GMT -0400)
Carroll County Regional-Poage

Weather History for KDMW - February, 2014

Change the Weather History Date:

Saturday, February 22, 2014

  Actual Average (KTHV) Record (KTHV)
Temperature  
Mean Temperature 46 °F -  
Max Temperature 55 °F 0 °F 63 °F (2017)
Min Temperature 37 °F - 0 °F (2011)
Degree Days  
Heating Degree Days 19    
Moisture  
Dew Point 18 °F    
Average Humidity 33    
Maximum Humidity 81    
Minimum Humidity 15    
Precipitation  
Precipitation 0.00 in - - ()
Sea Level Pressure  
Sea Level Pressure 30.03 in    
Wind  
Wind Speed 8 mph (SW)    
Max Wind Speed 18 mph    
Max Gust Speed 24 mph    
Visibility 10 miles    
Events      
Averages and records for this station are not official NWS values.
T = Trace of Precipitation, MM = Missing Value Source: NWS Daily Summary

Daily Weather History Graph

Daily Weather History Graph

Search for Another Location

Airport or City:

Trip Planner

Search our weather history database for the weather conditions in past years. The results will help you decide how hot, cold, wet, or windy it might be!

Date:

Astronomy

Feb. 22, 2014 Rise Set
Actual Time 6:51 AM EST 5:52 PM EST
Civil Twilight 6:23 AM EST 6:19 PM EST
Nautical Twilight 5:52 AM EST 6:51 PM EST
Astronomical Twilight 5:21 AM EST 7:22 PM EST
Moon 12:43 AM EST (2/22) 11:02 AM EST (2/22)
Length of Visible Light 11h 55m
Length of Day
11h 01m
Waning Gibbous, 50% of the Moon is Illuminated
Feb 22
Waning Gibbous
Feb 22
Last Quarter
Mar 1
New
Mar 8
First Quarter
Mar 16
Full

Hourly Weather History & Observations

Time (EST) Temp. Windchill Dew Point Humidity Pressure Visibility Wind Dir Wind Speed Gust Speed Precip Events Conditions
12:05 AM 44.6 °F 40.7 °F 21.2 °F 39% 29.97 in 10.0 mi West 6.9 mph - N/A   Clear
12:25 AM 44.6 °F 39.2 °F 19.4 °F 37% 29.97 in 10.0 mi West 10.4 mph 17.3 mph N/A   Clear
12:45 AM 44.6 °F 39.7 °F 19.4 °F 37% 29.99 in 10.0 mi West 9.2 mph - N/A   Clear
1:05 AM 44.6 °F 40.2 °F 19.4 °F 37% 29.99 in 10.0 mi West 8.1 mph - N/A   Clear
1:25 AM 44.6 °F 40.7 °F 19.4 °F 37% 30.00 in 10.0 mi West 6.9 mph 10.4 mph N/A   Clear
1:45 AM 42.8 °F 38.0 °F 19.4 °F 39% 30.00 in 10.0 mi West 8.1 mph - N/A   Clear
2:05 AM 42.8 °F 38.0 °F 19.4 °F 39% 30.00 in 10.0 mi West 8.1 mph - N/A   Clear
2:25 AM 42.8 °F 38.6 °F 19.4 °F 39% 30.00 in 10.0 mi West 6.9 mph - N/A   Clear
2:45 AM 42.8 °F 39.3 °F 19.4 °F 39% 30.01 in 10.0 mi WSW 5.8 mph - N/A   Clear
3:05 AM 42.8 °F 39.3 °F 17.6 °F 36% 30.01 in 10.0 mi WSW 5.8 mph - N/A   Clear
3:25 AM 42.8 °F 40.1 °F 17.6 °F 36% 30.02 in 10.0 mi WSW 4.6 mph - N/A   Clear
3:45 AM 42.8 °F 38.0 °F 17.6 °F 36% 30.02 in 10.0 mi West 8.1 mph - N/A   Clear
4:05 AM 41.0 °F 35.2 °F 19.4 °F 42% 30.01 in 10.0 mi WNW 9.2 mph - N/A   Clear
4:25 AM 41.0 °F 36.4 °F 17.6 °F 39% 30.02 in 10.0 mi West 6.9 mph - N/A   Clear
4:45 AM 42.8 °F 38.6 °F 17.6 °F 36% 30.03 in 10.0 mi West 6.9 mph - N/A   Clear
5:05 AM 41.0 °F 34.7 °F 17.6 °F 39% 30.03 in 10.0 mi WNW 10.4 mph - N/A   Clear
5:25 AM 41.0 °F 35.8 °F 17.6 °F 39% 30.03 in 10.0 mi West 8.1 mph - N/A   Clear
5:45 AM 41.0 °F 35.8 °F 17.6 °F 39% 30.03 in 10.0 mi West 8.1 mph - N/A   Clear
6:05 AM 42.8 °F 39.3 °F 15.8 °F 34% 30.04 in 10.0 mi WSW 5.8 mph - N/A   Clear
6:25 AM 39.2 °F 37.0 °F 19.4 °F 45% 30.05 in 10.0 mi South 3.5 mph - N/A   Clear
6:45 AM 39.2 °F 35.9 °F 19.4 °F 45% 30.06 in 10.0 mi SW 4.6 mph - N/A   Clear
7:05 AM 37.4 °F - 19.4 °F 48% 30.06 in 10.0 mi Calm Calm - N/A   Clear
7:25 AM 37.4 °F - 21.2 °F 52% 30.06 in 10.0 mi Calm Calm - N/A   Clear
7:45 AM 37.4 °F 34.9 °F 32.0 °F 81% 30.07 in 10.0 mi SSW 3.5 mph - N/A   Clear
8:05 AM 37.4 °F 33.8 °F 19.4 °F 48% 30.08 in 10.0 mi SSW 4.6 mph - N/A   Clear
8:25 AM 39.2 °F 35.9 °F 19.4 °F 45% 30.08 in 10.0 mi South 4.6 mph - N/A   Clear
8:45 AM 42.8 °F 41.1 °F 19.4 °F 39% 30.08 in 10.0 mi South 3.5 mph - N/A   Clear
9:05 AM 42.8 °F 41.1 °F 19.4 °F 39% 30.08 in 10.0 mi South 3.5 mph - N/A   Clear
9:25 AM 44.6 °F 39.7 °F 19.4 °F 37% 30.08 in 10.0 mi SW 9.2 mph - N/A   Clear
9:45 AM 46.4 °F 41.9 °F 19.4 °F 34% 30.08 in 10.0 mi SSW 9.2 mph - N/A   Clear
10:05 AM 48.2 °F - 17.6 °F 30% 30.07 in 10.0 mi SSW 16.1 mph 19.6 mph N/A   Clear
10:20 AM 46.4 °F 39.2 °F 17.6 °F 32% 30.07 in 10.0 mi SSW 18.4 mph 23.0 mph N/A   Clear
10:45 AM 48.2 °F - 17.6 °F 30% 30.06 in 10.0 mi SSW 15.0 mph 19.6 mph N/A   Clear
11:05 AM 50.0 °F - 17.6 °F 28% 30.06 in 10.0 mi SSW 17.3 mph - N/A   Clear
11:25 AM 50.0 °F - 17.6 °F 28% 30.06 in 10.0 mi SW 11.5 mph - N/A   Clear
11:45 AM 50.0 °F - 17.6 °F 28% 30.06 in 10.0 mi SW 11.5 mph 16.1 mph N/A   Clear
12:05 PM 51.8 °F - 15.8 °F 24% 30.05 in 10.0 mi SW 15.0 mph 23.0 mph N/A   Clear
12:25 PM 51.8 °F - 17.6 °F 26% 30.05 in 10.0 mi SW 10.4 mph 19.6 mph N/A   Clear
12:45 PM 51.8 °F - 17.6 °F 26% 30.04 in 10.0 mi SW 12.7 mph 17.3 mph N/A   Clear
1:05 PM 51.8 °F - 17.6 °F 26% 30.04 in 10.0 mi SW 13.8 mph 18.4 mph N/A   Clear
1:25 PM 51.8 °F - 17.6 °F 26% 30.02 in 10.0 mi SW 11.5 mph 17.3 mph N/A   Clear
1:45 PM 51.8 °F - 19.4 °F 28% 30.01 in 10.0 mi SW 13.8 mph - N/A   Clear
2:05 PM 53.6 °F - 19.4 °F 26% 30.01 in 10.0 mi WSW 9.2 mph - N/A   Clear
2:25 PM 53.6 °F - 21.2 °F 28% 30.01 in 10.0 mi SW 10.4 mph - N/A   Clear
2:45 PM 55.4 °F - 12.2 °F 18% 30.02 in 10.0 mi West 15.0 mph 21.9 mph N/A   Clear
3:05 PM 55.4 °F - 8.6 °F 15% 30.02 in 10.0 mi West 15.0 mph 24.2 mph N/A   Clear
3:25 PM 55.4 °F - 8.6 °F 15% 30.02 in 10.0 mi West 15.0 mph 21.9 mph N/A   Clear
3:45 PM 55.4 °F - 8.6 °F 15% 30.02 in 10.0 mi West 13.8 mph 21.9 mph N/A   Clear
4:05 PM 55.4 °F - 10.4 °F 17% 30.02 in 10.0 mi West 9.2 mph 17.3 mph N/A   Clear
4:25 PM 55.4 °F - 10.4 °F 17% 30.02 in 10.0 mi WSW 9.2 mph 17.3 mph N/A   Clear
4:45 PM 55.4 °F - 10.4 °F 17% 30.02 in 10.0 mi West 6.9 mph - N/A   Clear
5:05 PM 55.4 °F - 10.4 °F 17% 30.02 in 10.0 mi West 9.2 mph - N/A   Clear
5:25 PM 53.6 °F - 10.4 °F 18% 30.02 in 10.0 mi West 5.8 mph - N/A   Clear
5:45 PM 53.6 °F - 12.2 °F 19% 30.02 in 10.0 mi WSW 3.5 mph - N/A   Clear
6:05 PM 51.8 °F - 12.2 °F 21% 30.02 in 10.0 mi Calm Calm - N/A   Clear
6:25 PM 50.0 °F - 15.8 °F 26% 30.02 in 10.0 mi Calm Calm - N/A   Clear
6:45 PM 50.0 °F - 14.0 °F 24% 30.02 in 10.0 mi Calm Calm - N/A   Clear
7:05 PM 46.4 °F 44.3 °F 19.4 °F 34% 30.02 in 10.0 mi SSE 4.6 mph - N/A   Clear
7:25 PM 46.4 °F - 19.4 °F 34% 30.02 in 10.0 mi Calm Calm - N/A   Clear
7:45 PM 44.6 °F - 21.2 °F 39% 30.02 in 10.0 mi Calm Calm - N/A   Clear
8:05 PM 44.6 °F 42.2 °F 21.2 °F 39% 30.02 in 10.0 mi SSE 4.6 mph - N/A   Clear
8:25 PM 44.6 °F 42.2 °F 21.2 °F 39% 30.02 in 10.0 mi South 4.6 mph - N/A   Clear
8:45 PM 46.4 °F 44.3 °F 19.4 °F 34% 30.01 in 10.0 mi South 4.6 mph - N/A   Clear
9:05 PM 44.6 °F 42.2 °F 19.4 °F 37% 30.01 in 10.0 mi SSE 4.6 mph - N/A   Clear
9:25 PM 46.4 °F 44.3 °F 19.4 °F 34% 30.01 in 10.0 mi South 4.6 mph - N/A   Clear
9:45 PM 46.4 °F 44.3 °F 19.4 °F 34% 30.02 in 10.0 mi South 4.6 mph - N/A   Clear
10:05 PM 46.4 °F 43.5 °F 19.4 °F 34% 30.02 in 10.0 mi South 5.8 mph - N/A   Clear
10:25 PM 46.4 °F 44.3 °F 19.4 °F 34% 30.02 in 10.0 mi South 4.6 mph - N/A   Clear
10:45 PM 46.4 °F 43.5 °F 19.4 °F 34% 30.01 in 10.0 mi South 5.8 mph - N/A   Clear
11:05 PM 46.4 °F 42.9 °F 21.2 °F 37% 30.01 in 10.0 mi South 6.9 mph - N/A   Clear
11:20 PM 44.6 °F 41.4 °F 21.2 °F 39% 30.01 in 10.0 mi South 5.8 mph - N/A   Clear
11:45 PM 46.4 °F 42.9 °F 21.2 °F 37% 30.00 in 10.0 mi South 6.9 mph - N/A   Clear